Regional Weather Roundup
Issued by NWS Grand Forks, ND

Home | Current Version | Previous Version | Text Only | Print | Product List | Glossary On
Versions: 1 2 3 4 5 6 7 8 9 10 11 12 13 14 15 16 17 18 19 20 21 22 23 24 25 26 27 28 29 30 31 32 33 34 35 36 37 38 39 40 41 42 43 44 45 46 47 48 49 50
000
ASUS43 KFGF 050410
RWRFGF
PRAIRIE TO PINES  WEATHER ROUNDUP
NATIONAL WEATHER SERVICE EASTERN NORTH DAKOTA/GRAND FORKS ND
1000 PM CST WED MAR 04 2015

 **SATELLITE DATA USED TO AUGMENT SKY COVER AT AUTOMATED STATIONS**
 *****  WEATHER ACROSS EASTERN NORTH DAKOTA  *****

CITY           SKY/WX    TMP DP  RH WIND       PRES   REMARKS
GRAND FORKS    CLEAR    -10 -16  74 W6        30.40R WCI -23
GRAND FRKS AFB CLEAR    -10 -18  70 W6        30.39R WCI -24
GRAND FRKS NWS   N/A     -8 N/A N/A W2          N/A
DEVILS LAKE    PTCLDY    -8 -17  65 SW6       30.33R WCI -21
FARGO          CLEAR     -4 -12  68 W8        30.42R WCI -19
WAHPETON ARPT  CLEAR     -6 -13  71 W6        30.43R WCI -18
$$

 ***** WEATHER ACROSS CENTRAL AND WESTERN NORTH DAKOTA  *****

CITY           SKY/WX    TMP DP  RH WIND       PRES   REMARKS
BISMARCK       CLEAR     -5 -11  75 SE5       30.35R WCI -16
MINOT          MOCLDY    -7 -15  68 S5        30.28F WCI -18
JAMESTOWN      CLEAR     -7 -14  71 W6        30.35S WCI -20
MINOT AFB      MOCLDY   -10 -16  75 S5        30.28F WCI -22
GARRISON         N/A    -10 -17  71 CALM      30.28S
WILLISTON        N/A      1  -9  62 S3        30.23S
DICKINSON      CLEAR     -2 -10  69 S7        30.18S WCI -15
HETTINGER      CLEAR     -4 -11  72 SE3       30.22S
$$

 *****  OTHER AIRPORT OBSERVATIONS IN OUR AREA  *****

CITY           SKY/WX    TMP DP  RH WIND       PRES   REMARKS
WALHALLA         N/A     -4 -13  65 W7        30.35S WCI -18
GRAFTON AIRPOR NOT AVBL
VALLEY CITY AR FAIR      -6 -11  77 NW8       30.36R WCI -21
CANDO          FAIR     -13 -18  77 W6        30.32S WCI -27
CAVALIER APRT  FAIR     -11 -17  77 SW3       30.37S
GWINNER        CLEAR     -2 N/A N/A NW10      30.41R WCI -19
SHEYENNE NWR     N/A     -7 -15  69 W5        29.95S WCI -18
ROLLA          FAIR      -9 -17  70 W13       30.25S WCI -30
 ***** THE ABOVE OBSERVATIONS ARE NON NWS ARE NOT QUALITY
       CONTROLLED AND MAY MIS-REPORT RAIN FOR SNOW...
$$

  *****  WEATHER ACROSS NORTHERN MINNESOTA  *****

CITY           SKY/WX    TMP DP  RH WIND       PRES   REMARKS
FLAG ISLAND    CLEAR     -8 -15  71 W10       30.29R WCI -26
WARROAD        CLEAR     -9 -17  70 W6        30.31S WCI -23
ROSEAU         CLEAR     -6 -13  71 W6        30.33R WCI -18
HALLOCK        NOT AVBL
THF RVR FALLS  CLEAR     -9 N/A N/A CALM      30.34S
BAUDETTE       CLEAR     -9 -17  68 W7        30.28R WCI -24
WASKISH        CLEAR     -9 -15  77 SW3       30.31R
CROOKSTON      CLEAR     -8 -15  71 W3        30.40R
$$
  *****  WEATHER ACROSS CENTRAL AND WEST MINNESOTA  *****

CITY           SKY/WX    TMP DP  RH WIND       PRES   REMARKS
FOSSTON        CLEAR    -17 -20  83 SW3       30.35R
BEMIDJI        CLEAR    -13 -17  79 W6        30.31R WCI -27
PARK RAPIDS    CLEAR    -11 -16  78 CALM      30.31R
ELBOW LAKE     FAIR      -6 -10  81 NW5       30.39R WCI -17
WADENA         CLEAR     -9 -13  84 W5        30.34R WCI -21
DETROIT LAKES  FAIR      -6  -9  84 NW3       30.35R
MOORHEAD       CLEAR     -2  -8  78 NW6       30.42R WCI -14
FERGUS FALLS   CLEAR     -6 -13  71 NW6       30.43R WCI -18
MORRIS MN      CLEAR     -8 -13  77 W6        30.40R WCI -21
STAPLES        CLEAR    -13 -18  77 W5        30.35R WCI -25
$$
  *****  WEATHER ELSEWHERE ACROSS MINNESOTA  *****

CITY           SKY/WX    TMP DP  RH WIND       PRES   REMARKS
DULUTH         CLEAR     -5 -16  59 W10       30.26R WCI -23
INTRNTL FALLS  CLEAR     -8 -16  67 W8        30.28R WCI -24
ELY            CLEAR     -9 -17  70 W5        30.24R WCI -21
CLOQUET        CLEAR     -6 -15  65 W5        30.29R WCI -17
WHEATON        CLEAR     -9 -13  84 W3        30.45R
BRAINERD       CLEAR     -6 -15  65 NW6       30.34R WCI -19
HIBBING        FAIR      -7 -16  65 W6        30.27R WCI -20
ALEXANDRIA     CLEAR    -10 -13  86 W6        30.36R WCI -23
SAINT CLOUD    PTCLDY    -4 -14  62 W7        30.39R WCI -18
MINNEAPOLIS    CLEAR      1 -12  54 W7        30.44R WCI -12
$$

  *****  WEATHER ACROSS SOUTH DAKOTA  *****

CITY           SKY/WX    TMP DP  RH WIND       PRES   REMARKS
SIOUX FALLS    CLEAR     -3  -9  75 CALM      30.44R
BROOKINGS      NOT AVBL
WATERTOWN      PTCLDY    -9 -15  75 W5        30.36R WCI -20
HURON          MOCLDY    -8 -13  78 W3        30.45R
SISSETON         N/A     -5 -12  72 NW9       30.41R WCI -22
ABERDEEN       PTCLDY    -9 -17  68 CALM      30.43R
MITCHELL       CLEAR     -2  -7  79 N7        30.46R WCI -15
PIERRE         PTCLDY    -2 -11  65 E3        30.38R
MOBRIDGE       CLEAR      0  -9  65 SE5       30.33R WCI -10
RAPID CITY     CLEAR      4  -4  69 CALM      30.24R
$$

  *****  SOME WEATHER IN NEARBY STATES *****

CITY           SKY/WX    TMP DP  RH WIND       PRES   REMARKS
GLASGOW MT     CLEAR      9  -2  61 E14       30.11F WCI  -7
GREAT FALLS MT CLEAR     28  13  53 SW13      30.01R WCI  17
CHEYENNE WY    CLEAR      6  -5  60 SW8       30.12R WCI  -7
SCOTTSBLUFF NE CLEAR     13   4  67 CALM      30.23R
OMAHA NE       CLEAR     12   0  58 N9        30.46R WCI   0
DES MOINES IA  CLEAR     14   3  61 N14       30.42R WCI  -1
DAVENPORT IA   CLOUDY     8  -1  66 NW8       30.39R WCI  -4
CHICAGO IL     CLOUDY    13   0  56 NW15      30.32S WCI  -3
EAU CLAIRE WI  CLEAR      0 -13  54 W8        30.38R WCI -14
LA CROSSE WI   PTCLDY     7  -6  55 W9        30.40R WCI  -7
$$

  *****  SOME NATIONAL WEATHER *****

CITY           SKY/WX    TMP DP  RH WIND       PRES   REMARKS
LA GUARDIA NY  LGT RAIN  43  37  79 W7G17     29.91S
RALEIGH NC     MOCLDY    66  53  63 SW14      29.89R
ATLANTA GA     LGT RAIN  68  61  78 SW14G20   29.94R
NEW ORLEANS LA PTCLDY    71  67  87 S7        29.94R
OKLAHOMA CITY  CLOUDY    24  18  77 NE13      30.39R WCI  12
ALBUQUERQUE NM PTCLDY    39  13  34 N10G21    30.17R
SALT LAKE CITY CLEAR     32  21  64 SE7       30.31R
LOS ANGELES CA PTCLDY    59  48  67 W8        30.12R
BOISE ID       CLEAR     36  11  35 NE5       30.28S
SEATTLE WA     MOCLDY    47  22  37 N8        30.29R
$$

*** WEATHER ACROSS MANITOBA...SASKATCHEWAN AND ONTARIO ***
                ***ONTARIO***

CITY           SKY/WX    TMP DP  RH WIND       PRES   REMARKS
GERALDTON      CLEAR    -13 -17  84 W3        30.12R
THUNDER BAY    CLEAR    -13 -20  70 SW5       30.27R WCI -25
SIOUX LOOKOUT  CLEAR    -11 -18  70 SW3       30.18R
TORONTO        MOCLDY    18   9  68 NW20G29   30.09R WCI   1
BIG TROUT LK   CLOUDY    -8 -13  77 W8        30.04S WCI -23
PICKLE LAKE    NOT AVBL
DRYDEN         CLEAR     -8 -17  65 W10       30.20R WCI -26
KENORA         CLEAR     -8 -17  65 W7        30.24R WCI -22
$$
                *** MANITOBA***

CITY           SKY/WX    TMP DP  RH WIND       PRES   REMARKS
BRANDON        CLEAR    -13 -20  70 W10       30.29R WCI -32
DAUPHIN        CLEAR     -8 -17  65 W14       30.25F WCI -28
ISLAND LAKE    CLEAR     -8 -17  65 W8        30.12R WCI -23
PILOT MOUND      N/A    -11 -17  77 SW8         N/A  WCI -28
THE PAS        CLEAR     -8 -18  59 SW8       30.14S WCI -23
THOMPSON       CLEAR    -13 -22  64 SW2       30.05S
WINNIPEG       CLEAR     -8 -17  65 W12       30.33S WCI -27
LYNN LAKE      CLEAR    -15 -20  76 SW5       29.96F WCI -27
CHURCHILL      CLEAR    -22 -27  76 W8        29.98F WCI -41
GILLAM         CLEAR    -13 -20  70 W8        30.03S WCI -30
$$
                ***SASKATCHEWAN***

CITY           SKY/WX    TMP DP  RH WIND       PRES   REMARKS
ESTEVAN        CLEAR    -13 -18  77 SE7       30.21F WCI -29
KINDERSLEY     CLOUDY     9   0  66 S9        29.98F WCI  -5
LLOYDMINSTER   MOCLDY     5   0  78 S13       29.93F WCI -12
PRINCE ALBERT  MOCLDY   -11 -18  70 S5        30.11F WCI -23
REGINA         PTCLDY   -11 -18  70 SE13      30.16F WCI -32
YORKTON        CLEAR    -11 -20  64 SW8       30.20F WCI -28
N. BATTLEFORD  CLOUDY     0  -8  71 SE10      30.04F WCI -17
LA RONGE       CLEAR     -4 -15  59 S6        30.00F WCI -16
SASKATOON      MOCLDY    -6 -15  65 S10       30.12F WCI -23
SWIFT CURRENT  CLEAR      3  -4  72 SE12      29.98F WCI -13
$$
NOTE: THESE ARE AUTOMATED STATIONS WITH LIMITED QUALITY CONTROL
      "FAIR" INDICATES FEW OR NO CLOUDS BELOW 12,000 FEET WITH NO
      SIGNIFICANT WEATHER AND/OR OBSTRUCTIONS TO VISIBILITY.
      SKY/WX - SKY CONDITION AND SIGNIFICANT WEATHER.
      TMP - AIR TEMPERATURE.    DP   - DEWPOINT TEMPERATURE.
      RH  - RELATIVE HUMIDITY.  PRES - PRESSURE.
      HX  - HEAT INDEX.         WCI  - WIND CHILL INDEX.
$


USA.gov is the U.S. government's official web portal to all federal, state and local government web resources and services.